Regional Weather Roundup
Issued by NWS Newport/Morehead, NC

Current Version | Previous Version | Text Only | Print | Product List | Glossary On
Versions: 1 2 3 4 5 6 7 8 9 10 11 12 13 14 15 16 17 18 19 20 21 22 23 24 25 26 27 28 29 30 31 32 33 34 35 36 37 38 39 40 41 42 43 44 45 46 47 48 49 50
000 ASUS42 KMHX 251525 RWRMHX WEATHER ROUNDUP FOR EASTERN NORTH CAROLINA NATIONAL WEATHER SERVICE NEWPORT/MOREHEAD CITY NC 1100 AM EDT THU MAY 25 2017 NOTE: "FAIR" INDICATES FEW OR NO CLOUDS BELOW 12,000 FEET WITH NO SIGNIFICANT WEATHER AND/OR OBSTRUCTIONS TO VISIBILITY NCZ015>017-031-032-045>047-102-103-251600- NORTH COAST CITY SKY/WX TMP DP RH WIND PRES REMARKS EDENTON PTSUNNY 78 68 71 SW16 29.57R ELIZABETH CITY MOSUNNY 77 69 76 S16G23 29.56S KITTY HAWK MOSUNNY 77 63 62 SW12G24 29.57S MANTEO MOSUNNY 77 65 65 SW23 29.58F $$ NCZ045>047-081-094-103-104-251600- CENTRAL COAST CITY SKY/WX TMP DP RH WIND PRES REMARKS FRISCO NOT AVBL $$ NCZ095-097-098-100-101-251600- SOUTHERN COAST CITY SKY/WX TMP DP RH WIND PRES REMARKS BEAUFORT MOSUNNY 77 69 76 SW18G35 29.63R CEDAR ISLAND NOT AVBL JACKSONVILLE MOSUNNY 76 61 59 SW15G28 29.61S PINEY ISLAND MOSUNNY N/A N/A N/A SW26G37 29.61R WILMINGTON PTSUNNY 76 59 55 SW18G33 29.63S $$ NCZ011>013-027>030-043-044-078>080-089-090>093-098-251600- COASTAL PLAIN CITY SKY/WX TMP DP RH WIND PRES REMARKS AHOSKIE N/A 73 64 72 S5 29.56S CLINTON CLOUDY 72 60 65 SW12G23 29.62S ELIZABETHTOWN PTSUNNY 72 57 60 SW14G21 29.63S GOLDSBORO PTSUNNY 74 63 68 SW18 29.58R GREENVILLE PTSUNNY 73 61 64 SW15G25 29.62R HAVELOCK MOSUNNY 78 61 55 SW20G30 29.62R KENANSVILLE PTSUNNY 73 59 60 SW12G23 29.61S KINSTON PTSUNNY 75 61 60 SW13G20 29.60R NEW BERN PTSUNNY 75 62 64 SW13G25 29.62R RICHLANDS PTSUNNY 75 64 68 SW15G24 29.62S ROCKY MOUNT SUNNY 72 62 71 SW17G24 29.58R WASHINGTON MOSUNNY 75 64 67 SW15G21 29.58S WHITEVILLE PTSUNNY 73 59 61 SW9G21 29.63F $$ AMZ130-135-150-152-154-156-158-170-250-252-270-ANZ085-086-088-633-658-670-251600- MARINE OBSERVATIONS STATION/POSITION TIME TEMP WIND PRES WAVE SWELL AIR SEA DIR/SP/G HT/PER HT/PER (UTC) (F) (DEG/KT/KT) (MB) (FT/S) (FT/S) CHESAPEAKE LIGHT NOT AVBL 64 E VA BEACH 1450 67 65 210/ 12/ 14 1002.3 5/ 7 5/ 7 DUCK 1500 75 63 210/ 17/ 26 1000.7 2 E DUCK 1500 65 N/A 4/ 7 OREGON INLET 1500 75 69 200/ 21/ 24 1001.9 13E OREGON INLT 1448 66 N/A 6/ 8 3/ 8 HATTERAS CG 1500 76 73 220/ 12/ 20 1002.9 DIAMOND BUOY 1450 77 77 230/ 21/ 27 1003.0 9/ 7 3/11 CAPE LOOKOUT 1500 76 230/ 18/ 25 1003.0 BEAUFORT LAB 1500 76 72 240/ 9/ 17 1002.6 30 SE NEW RVR IN 1508 74 75 250/ 25/ 33 1003.5 30 SE NEW RVR IN 1443 75 N/A 10/ 8 2/11 27 SE WRIGHTSVLE 1508 73 75 220/ 23/ 33 1003.1 5 SE WRIGHTSVLE 1508 73 74 230/ 16/ 27 1003.8 225 S CAPE HAT 1450 77 76 190/ 23/ 27 1009.3 10/ 8 41 SE CHARLESTON 1500 72 76 240/ 21/ 25 1006.1 $$

USA.gov is the U.S. government's official web portal to all federal, state and local government web resources and services.